Information on these data can be found in provided Readme document
Contact Info: Zachary Fasnacht (zachary.fasnacht@ssaihq.com); Nickolay Krotkov (nickolay.a.krotkov@nasa.gov); Lok Lamsal (lok.lamsal@nasa.gov)

FillValue: -999.
ScaleFactor: 1e15
Units: molecules/cm^2

Date(yyyy-mm-dd),City,Country,LonCenter,LatCenter,BoundingCoordinates,Median,Q1,Q3,Mean,Baseline_Median,Baseline_Q1,Baseline_Q3,Baseline_Mean,NumGoodSamples,NumTotalSamples
2015-01-01,LaPaz,Bolivia,-68.3667,-16.45,[-68.8667 -16.95 -67.8667 -15.95],0.22,-0.35,1.382,0.599,0.277,-0.288,0.975,0.338,44.0,536.0
2015-01-02,LaPaz,Bolivia,-68.3667,-16.45,[-68.8667 -16.95 -67.8667 -15.95],0.23,-0.35,1.205,0.521,0.301,-0.299,0.974,0.343,52.0,528.0
2015-01-03,LaPaz,Bolivia,-68.3667,-16.45,[-68.8667 -16.95 -67.8667 -15.95],0.22,-0.317,1.053,0.48,0.309,-0.222,0.959,0.347,49.0,548.0
2015-01-04,LaPaz,Bolivia,-68.3667,-16.45,[-68.8667 -16.95 -67.8667 -15.95],0.189,-0.201,0.744,0.398,0.28,-0.208,0.907,0.338,53.0,517.0
2015-01-05,LaPaz,Bolivia,-68.3667,-16.45,[-68.8667 -16.95 -67.8667 -15.95],0.189,-0.201,0.744,0.398,0.271,-0.2,0.884,0.335,53.0,534.0
2015-01-06,LaPaz,Bolivia,-68.3667,-16.45,[-68.8667 -16.95 -67.8667 -15.95],0.117,-0.207,0.712,0.341,0.255,-0.224,0.832,0.317,47.0,519.0
2015-01-07,LaPaz,Bolivia,-68.3667,-16.45,[-68.8667 -16.95 -67.8667 -15.95],0.117,-0.236,0.712,0.276,0.243,-0.197,0.804,0.31,65.0,543.0
2015-01-08,LaPaz,Bolivia,-68.3667,-16.45,[-68.8667 -16.95 -67.8667 -15.95],0.105,-0.229,0.534,0.032,0.192,-0.208,0.703,0.231,48.0,531.0
2015-01-09,LaPaz,Bolivia,-68.3667,-16.45,[-68.8667 -16.95 -67.8667 -15.95],0.105,-0.229,0.534,0.033,0.243,-0.216,0.84,0.243,46.0,495.0
2015-01-10,LaPaz,Bolivia,-68.3667,-16.45,[-68.8667 -16.95 -67.8667 -15.95],0.105,-0.229,0.374,0.04,0.306,-0.199,0.829,0.296,51.0,510.0
2015-01-11,LaPaz,Bolivia,-68.3667,-16.45,[-68.8667 -16.95 -67.8667 -15.95],0.105,-0.229,0.374,0.04,0.245,-0.18,0.781,0.269,51.0,486.0
2015-01-12,LaPaz,Bolivia,-68.3667,-16.45,[-68.8667 -16.95 -67.8667 -15.95],0.112,-0.236,0.411,0.038,0.239,-0.197,0.765,0.252,50.0,506.0
2015-01-13,LaPaz,Bolivia,-68.3667,-16.45,[-68.8667 -16.95 -67.8667 -15.95],0.112,-0.236,0.411,0.038,0.258,-0.157,0.752,0.283,50.0,483.0
2015-01-14,LaPaz,Bolivia,-68.3667,-16.45,[-68.8667 -16.95 -67.8667 -15.95],0.112,-0.236,0.411,0.038,0.282,-0.137,0.741,0.303,50.0,511.0
2015-01-15,LaPaz,Bolivia,-68.3667,-16.45,[-68.8667 -16.95 -67.8667 -15.95],0.059,-0.236,0.374,-0.002,0.301,-0.145,0.765,0.33,42.0,492.0
2015-01-16,LaPaz,Bolivia,-68.3667,-16.45,[-68.8667 -16.95 -67.8667 -15.95],0.117,-0.225,0.374,0.011,0.294,-0.147,0.785,0.331,50.0,507.0
2015-01-17,LaPaz,Bolivia,-68.3667,-16.45,[-68.8667 -16.95 -67.8667 -15.95],0.117,-0.199,0.374,0.103,0.222,-0.175,0.743,0.293,46.0,506.0
2015-01-18,LaPaz,Bolivia,-68.3667,-16.45,[-68.8667 -16.95 -67.8667 -15.95],0.117,-0.225,0.374,0.089,0.184,-0.184,0.723,0.29,50.0,496.0
2015-01-19,LaPaz,Bolivia,-68.3667,-16.45,[-68.8667 -16.95 -67.8667 -15.95],0.208,-0.229,0.858,0.199,0.181,-0.171,0.773,0.293,54.0,514.0
2015-01-20,LaPaz,Bolivia,-68.3667,-16.45,[-68.8667 -16.95 -67.8667 -15.95],0.223,-0.229,0.516,0.142,0.18,-0.172,0.726,0.292,61.0,485.0
2015-01-21,LaPaz,Bolivia,-68.3667,-16.45,[-68.8667 -16.95 -67.8667 -15.95],0.223,-0.229,0.516,0.142,0.189,-0.175,0.7,0.276,61.0,503.0
2015-01-22,LaPaz,Bolivia,-68.3667,-16.45,[-68.8667 -16.95 -67.8667 -15.95],0.262,-0.14,0.516,0.191,0.19,-0.167,0.717,0.296,49.0,489.0
2015-01-23,LaPaz,Bolivia,-68.3667,-16.45,[-68.8667 -16.95 -67.8667 -15.95],0.262,-0.14,0.516,0.192,0.213,-0.152,0.716,0.305,52.0,511.0
2015-01-24,LaPaz,Bolivia,-68.3667,-16.45,[-68.8667 -16.95 -67.8667 -15.95],0.262,-0.14,0.516,0.192,0.191,-0.163,0.657,0.282,52.0,537.0
2015-01-25,LaPaz,Bolivia,-68.3667,-16.45,[-68.8667 -16.95 -67.8667 -15.95],0.384,-0.05,0.883,0.352,0.199,-0.168,0.683,0.284,61.0,539.0
2015-01-26,LaPaz,Bolivia,-68.3667,-16.45,[-68.8667 -16.95 -67.8667 -15.95],0.349,-0.123,0.868,0.316,0.204,-0.168,0.677,0.286,74.0,553.0
2015-01-27,LaPaz,Bolivia,-68.3667,-16.45,[-68.8667 -16.95 -67.8667 -15.95],0.394,-0.193,0.883,0.348,0.246,-0.195,0.65,0.287,87.0,527.0
2015-01-28,LaPaz,Bolivia,-68.3667,-16.45,[-68.8667 -16.95 -67.8667 -15.95],0.394,-0.193,0.883,0.348,0.235,-0.216,0.718,0.296,87.0,544.0
2015-01-29,LaPaz,Bolivia,-68.3667,-16.45,[-68.8667 -16.95 -67.8667 -15.95],0.394,-0.193,0.883,0.348,0.241,-0.194,0.729,0.312,87.0,522.0
2015-01-30,LaPaz,Bolivia,-68.3667,-16.45,[-68.8667 -16.95 -67.8667 -15.95],0.394,-0.193,0.883,0.348,0.232,-0.203,0.7,0.292,87.0,551.0
2015-01-31,LaPaz,Bolivia,-68.3667,-16.45,[-68.8667 -16.95 -67.8667 -15.95],0.404,-0.193,0.883,0.378,0.217,-0.207,0.67,0.279,74.0,531.0
2015-02-01,LaPaz,Bolivia,-68.3667,-16.45,[-68.8667 -16.95 -67.8667 -15.95],0.334,-0.311,0.868,0.325,0.296,-0.208,0.696,0.316,81.0,544.0
2015-02-02,LaPaz,Bolivia,-68.3667,-16.45,[-68.8667 -16.95 -67.8667 -15.95],0.334,-0.361,0.868,0.303,0.31,-0.241,0.694,0.303,86.0,543.0
2015-02-03,LaPaz,Bolivia,-68.3667,-16.45,[-68.8667 -16.95 -67.8667 -15.95],0.262,-0.417,0.845,0.273,0.299,-0.276,0.692,0.302,81.0,534.0
2015-02-04,LaPaz,Bolivia,-68.3667,-16.45,[-68.8667 -16.95 -67.8667 -15.95],0.334,-0.417,0.883,0.329,0.323,-0.277,0.722,0.326,76.0,551.0
2015-02-05,LaPaz,Bolivia,-68.3667,-16.45,[-68.8667 -16.95 -67.8667 -15.95],0.239,-0.361,0.883,0.314,0.308,-0.257,0.737,0.335,78.0,521.0
2015-02-06,LaPaz,Bolivia,-68.3667,-16.45,[-68.8667 -16.95 -67.8667 -15.95],0.205,-0.361,0.963,0.325,0.289,-0.273,0.747,0.275,72.0,539.0
2015-02-07,LaPaz,Bolivia,-68.3667,-16.45,[-68.8667 -16.95 -67.8667 -15.95],0.162,-0.274,0.905,0.305,0.302,-0.251,0.743,0.289,71.0,524.0
2015-02-08,LaPaz,Bolivia,-68.3667,-16.45,[-68.8667 -16.95 -67.8667 -15.95],0.162,-0.274,0.905,0.303,0.298,-0.231,0.795,0.27,74.0,546.0
2015-02-09,LaPaz,Bolivia,-68.3667,-16.45,[-68.8667 -16.95 -67.8667 -15.95],0.041,-0.361,0.842,0.195,0.292,-0.25,0.828,0.245,62.0,533.0
2015-02-10,LaPaz,Bolivia,-68.3667,-16.45,[-68.8667 -16.95 -67.8667 -15.95],0.041,-0.361,0.845,0.207,0.233,-0.29,0.767,0.21,49.0,497.0
2015-02-11,LaPaz,Bolivia,-68.3667,-16.45,[-68.8667 -16.95 -67.8667 -15.95],0.008,-0.417,0.842,0.182,0.198,-0.361,0.847,0.236,54.0,512.0
2015-02-12,LaPaz,Bolivia,-68.3667,-16.45,[-68.8667 -16.95 -67.8667 -15.95],0.162,-0.274,0.842,0.354,0.169,-0.341,0.808,0.236,68.0,487.0
2015-02-13,LaPaz,Bolivia,-68.3667,-16.45,[-68.8667 -16.95 -67.8667 -15.95],0.162,-0.274,0.842,0.354,0.228,-0.3,0.8,0.238,68.0,504.0
2015-02-14,LaPaz,Bolivia,-68.3667,-16.45,[-68.8667 -16.95 -67.8667 -15.95],0.125,-0.274,0.671,0.322,0.209,-0.305,0.764,0.23,72.0,478.0
2015-02-15,LaPaz,Bolivia,-68.3667,-16.45,[-68.8667 -16.95 -67.8667 -15.95],0.125,-0.274,0.671,0.322,0.201,-0.296,0.759,0.238,72.0,506.0
2015-02-16,LaPaz,Bolivia,-68.3667,-16.45,[-68.8667 -16.95 -67.8667 -15.95],0.269,-0.246,0.671,0.368,0.214,-0.323,0.762,0.232,60.0,488.0
2015-02-17,LaPaz,Bolivia,-68.3667,-16.45,[-68.8667 -16.95 -67.8667 -15.95],0.167,-0.306,0.671,0.289,0.208,-0.328,0.774,0.239,81.0,500.0
2015-02-18,LaPaz,Bolivia,-68.3667,-16.45,[-68.8667 -16.95 -67.8667 -15.95],0.205,-0.306,0.702,0.353,0.188,-0.341,0.783,0.242,84.0,497.0
2015-02-19,LaPaz,Bolivia,-68.3667,-16.45,[-68.8667 -16.95 -67.8667 -15.95],0.214,-0.306,0.703,0.35,0.181,-0.357,0.771,0.234,100.0,489.0
2015-02-20,LaPaz,Bolivia,-68.3667,-16.45,[-68.8667 -16.95 -67.8667 -15.95],0.269,-0.307,0.737,0.363,0.213,-0.361,0.782,0.239,98.0,507.0
2015-02-21,LaPaz,Bolivia,-68.3667,-16.45,[-68.8667 -16.95 -67.8667 -15.95],0.267,-0.271,0.702,0.355,0.222,-0.364,0.749,0.253,101.0,476.0
2015-02-22,LaPaz,Bolivia,-68.3667,-16.45,[-68.8667 -16.95 -67.8667 -15.95],0.333,-0.307,0.769,0.377,0.223,-0.335,0.73,0.233,98.0,494.0
2015-02-23,LaPaz,Bolivia,-68.3667,-16.45,[-68.8667 -16.95 -67.8667 -15.95],0.214,-0.256,0.702,0.344,0.192,-0.351,0.766,0.255,100.0,480.0
2015-02-24,LaPaz,Bolivia,-68.3667,-16.45,[-68.8667 -16.95 -67.8667 -15.95],0.167,-0.307,0.702,0.334,0.179,-0.365,0.765,0.258,118.0,503.0
2015-02-25,LaPaz,Bolivia,-68.3667,-16.45,[-68.8667 -16.95 -67.8667 -15.95],0.267,-0.256,0.702,0.347,0.239,-0.33,0.793,0.289,125.0,528.0
2015-02-26,LaPaz,Bolivia,-68.3667,-16.45,[-68.8667 -16.95 -67.8667 -15.95],0.214,-0.256,0.671,0.331,0.236,-0.307,0.765,0.266,107.0,529.0
2015-02-27,LaPaz,Bolivia,-68.3667,-16.45,[-68.8667 -16.95 -67.8667 -15.95],0.133,-0.317,0.565,0.224,0.23,-0.274,0.751,0.263,93.0,544.0
2015-02-28,LaPaz,Bolivia,-68.3667,-16.45,[-68.8667 -16.95 -67.8667 -15.95],0.251,-0.256,0.702,0.278,0.282,-0.296,0.789,0.232,100.0,518.0
2015-03-01,LaPaz,Bolivia,-68.3667,-16.45,[-68.8667 -16.95 -67.8667 -15.95],0.251,-0.256,0.737,0.301,0.265,-0.321,0.747,0.228,96.0,536.0
2015-03-02,LaPaz,Bolivia,-68.3667,-16.45,[-68.8667 -16.95 -67.8667 -15.95],0.214,-0.202,0.713,0.298,0.268,-0.308,0.763,0.237,100.0,512.0
2015-03-03,LaPaz,Bolivia,-68.3667,-16.45,[-68.8667 -16.95 -67.8667 -15.95],0.214,-0.202,0.713,0.298,0.29,-0.271,0.769,0.247,100.0,540.0
2015-03-04,LaPaz,Bolivia,-68.3667,-16.45,[-68.8667 -16.95 -67.8667 -15.95],0.481,-0.128,0.809,0.453,0.32,-0.275,0.817,0.276,83.0,523.0
2015-03-05,LaPaz,Bolivia,-68.3667,-16.45,[-68.8667 -16.95 -67.8667 -15.95],0.481,-0.136,0.809,0.358,0.319,-0.201,0.769,0.265,91.0,538.0
2015-03-06,LaPaz,Bolivia,-68.3667,-16.45,[-68.8667 -16.95 -67.8667 -15.95],0.53,-0.136,0.809,0.375,0.344,-0.191,0.755,0.267,80.0,536.0
2015-03-07,LaPaz,Bolivia,-68.3667,-16.45,[-68.8667 -16.95 -67.8667 -15.95],0.524,-0.12,0.82,0.395,0.357,-0.219,0.77,0.273,99.0,527.0
2015-03-08,LaPaz,Bolivia,-68.3667,-16.45,[-68.8667 -16.95 -67.8667 -15.95],0.523,-0.136,0.826,0.372,0.366,-0.185,0.794,0.31,109.0,546.0
2015-03-09,LaPaz,Bolivia,-68.3667,-16.45,[-68.8667 -16.95 -67.8667 -15.95],0.523,-0.03,0.871,0.412,0.398,-0.141,0.839,0.333,123.0,517.0
2015-03-10,LaPaz,Bolivia,-68.3667,-16.45,[-68.8667 -16.95 -67.8667 -15.95],0.53,0.018,0.871,0.442,0.376,-0.107,0.786,0.321,118.0,533.0
2015-03-11,LaPaz,Bolivia,-68.3667,-16.45,[-68.8667 -16.95 -67.8667 -15.95],0.552,0.062,0.871,0.455,0.396,-0.083,0.833,0.342,100.0,518.0
2015-03-12,LaPaz,Bolivia,-68.3667,-16.45,[-68.8667 -16.95 -67.8667 -15.95],0.568,0.018,0.92,0.516,0.353,-0.119,0.825,0.327,105.0,541.0
2015-03-13,LaPaz,Bolivia,-68.3667,-16.45,[-68.8667 -16.95 -67.8667 -15.95],0.568,0.018,0.872,0.486,0.362,-0.111,0.823,0.332,108.0,529.0
2015-03-14,LaPaz,Bolivia,-68.3667,-16.45,[-68.8667 -16.95 -67.8667 -15.95],0.568,0.018,0.872,0.486,0.323,-0.159,0.813,0.3,108.0,493.0
2015-03-15,LaPaz,Bolivia,-68.3667,-16.45,[-68.8667 -16.95 -67.8667 -15.95],0.523,-0.1,0.928,0.466,0.329,-0.155,0.811,0.314,121.0,507.0
2015-03-16,LaPaz,Bolivia,-68.3667,-16.45,[-68.8667 -16.95 -67.8667 -15.95],0.503,-0.12,0.928,0.482,0.334,-0.154,0.791,0.337,133.0,483.0
2015-03-17,LaPaz,Bolivia,-68.3667,-16.45,[-68.8667 -16.95 -67.8667 -15.95],0.503,-0.129,0.929,0.497,0.306,-0.183,0.81,0.311,129.0,502.0
2015-03-18,LaPaz,Bolivia,-68.3667,-16.45,[-68.8667 -16.95 -67.8667 -15.95],0.503,-0.129,0.929,0.497,0.298,-0.173,0.802,0.309,129.0,474.0
2015-03-19,LaPaz,Bolivia,-68.3667,-16.45,[-68.8667 -16.95 -67.8667 -15.95],0.501,-0.2,0.935,0.478,0.286,-0.193,0.764,0.308,116.0,501.0
2015-03-20,LaPaz,Bolivia,-68.3667,-16.45,[-68.8667 -16.95 -67.8667 -15.95],0.436,-0.129,0.928,0.473,0.269,-0.197,0.809,0.312,105.0,483.0
2015-03-21,LaPaz,Bolivia,-68.3667,-16.45,[-68.8667 -16.95 -67.8667 -15.95],0.253,-0.224,0.857,0.4,0.246,-0.217,0.765,0.296,122.0,497.0
2015-03-22,LaPaz,Bolivia,-68.3667,-16.45,[-68.8667 -16.95 -67.8667 -15.95],0.168,-0.27,0.854,0.348,0.229,-0.245,0.751,0.264,110.0,493.0
2015-03-23,LaPaz,Bolivia,-68.3667,-16.45,[-68.8667 -16.95 -67.8667 -15.95],0.181,-0.27,0.824,0.357,0.231,-0.248,0.745,0.258,103.0,482.0
2015-03-24,LaPaz,Bolivia,-68.3667,-16.45,[-68.8667 -16.95 -67.8667 -15.95],0.126,-0.336,0.775,0.31,0.231,-0.273,0.769,0.248,91.0,501.0
2015-03-25,LaPaz,Bolivia,-68.3667,-16.45,[-68.8667 -16.95 -67.8667 -15.95],0.126,-0.336,0.775,0.31,0.223,-0.278,0.773,0.25,91.0,473.0
2015-03-26,LaPaz,Bolivia,-68.3667,-16.45,[-68.8667 -16.95 -67.8667 -15.95],0.121,-0.349,0.775,0.306,0.222,-0.27,0.718,0.24,89.0,491.0
2015-03-27,LaPaz,Bolivia,-68.3667,-16.45,[-68.8667 -16.95 -67.8667 -15.95],0.103,-0.349,0.668,0.176,0.225,-0.273,0.696,0.237,85.0,476.0
2015-03-28,LaPaz,Bolivia,-68.3667,-16.45,[-68.8667 -16.95 -67.8667 -15.95],0.121,-0.349,0.768,0.243,0.234,-0.248,0.755,0.276,104.0,499.0
2015-03-29,LaPaz,Bolivia,-68.3667,-16.45,[-68.8667 -16.95 -67.8667 -15.95],0.126,-0.349,0.724,0.224,0.288,-0.237,0.767,0.3,108.0,527.0
2015-03-30,LaPaz,Bolivia,-68.3667,-16.45,[-68.8667 -16.95 -67.8667 -15.95],0.103,-0.349,0.618,0.163,0.237,-0.272,0.772,0.285,93.0,531.0
2015-03-31,LaPaz,Bolivia,-68.3667,-16.45,[-68.8667 -16.95 -67.8667 -15.95],0.07,-0.427,0.618,0.136,0.212,-0.286,0.791,0.288,93.0,546.0
2015-04-01,LaPaz,Bolivia,-68.3667,-16.45,[-68.8667 -16.95 -67.8667 -15.95],0.07,-0.427,0.618,0.136,0.22,-0.28,0.774,0.289,93.0,520.0
2015-04-02,LaPaz,Bolivia,-68.3667,-16.45,[-68.8667 -16.95 -67.8667 -15.95],0.07,-0.427,0.618,0.136,0.221,-0.254,0.766,0.284,93.0,543.0
2015-04-03,LaPaz,Bolivia,-68.3667,-16.45,[-68.8667 -16.95 -67.8667 -15.95],0.047,-0.427,0.618,0.129,0.217,-0.276,0.784,0.273,95.0,514.0
2015-04-04,LaPaz,Bolivia,-68.3667,-16.45,[-68.8667 -16.95 -67.8667 -15.95],0.07,-0.601,0.768,0.154,0.246,-0.216,0.787,0.291,92.0,540.0
2015-04-05,LaPaz,Bolivia,-68.3667,-16.45,[-68.8667 -16.95 -67.8667 -15.95],0.338,-0.68,0.824,0.209,0.257,-0.231,0.821,0.315,68.0,522.0
2015-04-06,LaPaz,Bolivia,-68.3667,-16.45,[-68.8667 -16.95 -67.8667 -15.95],0.354,-0.646,1.109,0.25,0.277,-0.24,0.906,0.361,74.0,539.0
2015-04-07,LaPaz,Bolivia,-68.3667,-16.45,[-68.8667 -16.95 -67.8667 -15.95],0.103,-0.673,1.038,0.217,0.253,-0.279,0.862,0.321,76.0,538.0
2015-04-08,LaPaz,Bolivia,-68.3667,-16.45,[-68.8667 -16.95 -67.8667 -15.95],0.038,-0.69,0.772,0.125,0.273,-0.246,0.796,0.32,82.0,528.0
2015-04-09,LaPaz,Bolivia,-68.3667,-16.45,[-68.8667 -16.95 -67.8667 -15.95],0.038,-0.69,0.775,0.141,0.273,-0.245,0.813,0.328,93.0,547.0
2015-04-10,LaPaz,Bolivia,-68.3667,-16.45,[-68.8667 -16.95 -67.8667 -15.95],0.038,-0.69,0.775,0.141,0.255,-0.27,0.789,0.33,93.0,517.0
2015-04-11,LaPaz,Bolivia,-68.3667,-16.45,[-68.8667 -16.95 -67.8667 -15.95],0.011,-0.69,0.805,0.167,0.219,-0.279,0.781,0.31,85.0,534.0
2015-04-12,LaPaz,Bolivia,-68.3667,-16.45,[-68.8667 -16.95 -67.8667 -15.95],-0.078,-0.763,0.658,-0.031,0.185,-0.334,0.735,0.261,67.0,520.0
2015-04-13,LaPaz,Bolivia,-68.3667,-16.45,[-68.8667 -16.95 -67.8667 -15.95],-0.149,-0.704,0.775,0.02,0.144,-0.299,0.706,0.242,68.0,541.0
2015-04-14,LaPaz,Bolivia,-68.3667,-16.45,[-68.8667 -16.95 -67.8667 -15.95],0.072,-0.646,1.038,0.271,0.192,-0.316,0.721,0.247,69.0,527.0
2015-04-15,LaPaz,Bolivia,-68.3667,-16.45,[-68.8667 -16.95 -67.8667 -15.95],0.038,-0.673,0.859,0.178,0.185,-0.298,0.704,0.227,57.0,491.0
2015-04-16,LaPaz,Bolivia,-68.3667,-16.45,[-68.8667 -16.95 -67.8667 -15.95],0.011,-0.673,0.859,0.153,0.194,-0.288,0.732,0.238,60.0,505.0
2015-04-17,LaPaz,Bolivia,-68.3667,-16.45,[-68.8667 -16.95 -67.8667 -15.95],0.072,-0.492,0.859,0.241,0.171,-0.35,0.717,0.233,72.0,477.0
2015-04-18,LaPaz,Bolivia,-68.3667,-16.45,[-68.8667 -16.95 -67.8667 -15.95],0.264,-0.492,0.859,0.255,0.17,-0.365,0.695,0.194,70.0,501.0
2015-04-19,LaPaz,Bolivia,-68.3667,-16.45,[-68.8667 -16.95 -67.8667 -15.95],0.36,-0.372,0.865,0.282,0.143,-0.436,0.701,0.162,80.0,480.0
2015-04-20,LaPaz,Bolivia,-68.3667,-16.45,[-68.8667 -16.95 -67.8667 -15.95],0.36,-0.372,0.865,0.282,0.114,-0.506,0.67,0.137,80.0,506.0
2015-04-21,LaPaz,Bolivia,-68.3667,-16.45,[-68.8667 -16.95 -67.8667 -15.95],0.452,-0.292,0.865,0.298,0.093,-0.475,0.65,0.113,68.0,486.0
2015-04-22,LaPaz,Bolivia,-68.3667,-16.45,[-68.8667 -16.95 -67.8667 -15.95],0.634,-0.26,0.956,0.352,0.145,-0.449,0.692,0.169,81.0,498.0
2015-04-23,LaPaz,Bolivia,-68.3667,-16.45,[-68.8667 -16.95 -67.8667 -15.95],0.639,-0.144,1.0,0.43,0.108,-0.489,0.777,0.171,77.0,498.0
2015-04-24,LaPaz,Bolivia,-68.3667,-16.45,[-68.8667 -16.95 -67.8667 -15.95],0.454,-0.284,0.874,0.326,0.151,-0.439,0.684,0.166,82.0,489.0
2015-04-25,LaPaz,Bolivia,-68.3667,-16.45,[-68.8667 -16.95 -67.8667 -15.95],0.583,-0.257,0.917,0.382,0.201,-0.43,0.754,0.228,102.0,508.0
2015-04-26,LaPaz,Bolivia,-68.3667,-16.45,[-68.8667 -16.95 -67.8667 -15.95],0.454,-0.217,0.874,0.382,0.269,-0.398,0.859,0.266,121.0,480.0
2015-04-27,LaPaz,Bolivia,-68.3667,-16.45,[-68.8667 -16.95 -67.8667 -15.95],0.511,-0.194,0.889,0.434,0.282,-0.37,0.885,0.303,117.0,497.0
2015-04-28,LaPaz,Bolivia,-68.3667,-16.45,[-68.8667 -16.95 -67.8667 -15.95],0.257,-0.208,0.845,0.32,0.284,-0.349,0.884,0.309,134.0,482.0
2015-04-29,LaPaz,Bolivia,-68.3667,-16.45,[-68.8667 -16.95 -67.8667 -15.95],0.149,-0.29,0.728,0.289,0.268,-0.342,0.881,0.321,162.0,504.0
2015-04-30,LaPaz,Bolivia,-68.3667,-16.45,[-68.8667 -16.95 -67.8667 -15.95],0.149,-0.29,0.728,0.289,0.262,-0.319,0.866,0.32,162.0,526.0
2015-05-01,LaPaz,Bolivia,-68.3667,-16.45,[-68.8667 -16.95 -67.8667 -15.95],0.248,-0.208,0.778,0.345,0.29,-0.337,0.863,0.327,168.0,524.0
2015-05-02,LaPaz,Bolivia,-68.3667,-16.45,[-68.8667 -16.95 -67.8667 -15.95],0.167,-0.29,0.747,0.318,0.305,-0.345,0.951,0.359,171.0,537.0
2015-05-03,LaPaz,Bolivia,-68.3667,-16.45,[-68.8667 -16.95 -67.8667 -15.95],0.257,-0.208,0.889,0.4,0.365,-0.323,1.01,0.418,185.0,515.0
2015-05-04,LaPaz,Bolivia,-68.3667,-16.45,[-68.8667 -16.95 -67.8667 -15.95],0.248,-0.245,0.889,0.4,0.368,-0.33,1.0,0.41,175.0,530.0
2015-05-05,LaPaz,Bolivia,-68.3667,-16.45,[-68.8667 -16.95 -67.8667 -15.95],0.281,-0.172,0.889,0.435,0.396,-0.286,1.011,0.443,194.0,512.0
2015-05-06,LaPaz,Bolivia,-68.3667,-16.45,[-68.8667 -16.95 -67.8667 -15.95],0.281,-0.172,0.889,0.435,0.376,-0.261,0.968,0.431,193.0,541.0
2015-05-07,LaPaz,Bolivia,-68.3667,-16.45,[-68.8667 -16.95 -67.8667 -15.95],0.257,-0.256,0.78,0.352,0.369,-0.294,0.957,0.417,181.0,522.0
2015-05-08,LaPaz,Bolivia,-68.3667,-16.45,[-68.8667 -16.95 -67.8667 -15.95],0.257,-0.256,0.78,0.351,0.376,-0.277,0.966,0.432,177.0,531.0
2015-05-09,LaPaz,Bolivia,-68.3667,-16.45,[-68.8667 -16.95 -67.8667 -15.95],0.281,-0.208,0.804,0.389,0.385,-0.242,0.974,0.447,161.0,530.0
2015-05-10,LaPaz,Bolivia,-68.3667,-16.45,[-68.8667 -16.95 -67.8667 -15.95],0.268,-0.256,0.889,0.408,0.382,-0.253,0.93,0.43,158.0,521.0
2015-05-11,LaPaz,Bolivia,-68.3667,-16.45,[-68.8667 -16.95 -67.8667 -15.95],0.295,-0.256,0.905,0.431,0.372,-0.264,0.955,0.444,157.0,538.0
2015-05-12,LaPaz,Bolivia,-68.3667,-16.45,[-68.8667 -16.95 -67.8667 -15.95],0.297,-0.172,1.011,0.49,0.373,-0.265,0.969,0.441,170.0,509.0
2015-05-13,LaPaz,Bolivia,-68.3667,-16.45,[-68.8667 -16.95 -67.8667 -15.95],0.489,-0.149,1.378,0.611,0.381,-0.253,1.038,0.442,148.0,526.0
2015-05-14,LaPaz,Bolivia,-68.3667,-16.45,[-68.8667 -16.95 -67.8667 -15.95],0.633,-0.054,1.224,0.611,0.423,-0.216,1.028,0.471,140.0,513.0
2015-05-15,LaPaz,Bolivia,-68.3667,-16.45,[-68.8667 -16.95 -67.8667 -15.95],0.633,-0.138,1.224,0.585,0.421,-0.211,1.028,0.473,174.0,538.0
2015-05-16,LaPaz,Bolivia,-68.3667,-16.45,[-68.8667 -16.95 -67.8667 -15.95],0.633,-0.159,1.151,0.556,0.428,-0.211,1.006,0.464,179.0,528.0
2015-05-17,LaPaz,Bolivia,-68.3667,-16.45,[-68.8667 -16.95 -67.8667 -15.95],0.633,-0.104,1.151,0.576,0.399,-0.205,0.99,0.444,164.0,495.0
2015-05-18,LaPaz,Bolivia,-68.3667,-16.45,[-68.8667 -16.95 -67.8667 -15.95],0.633,-0.159,1.147,0.526,0.398,-0.213,0.978,0.434,150.0,504.0
2015-05-19,LaPaz,Bolivia,-68.3667,-16.45,[-68.8667 -16.95 -67.8667 -15.95],0.633,-0.179,1.151,0.523,0.397,-0.212,1.013,0.444,159.0,483.0
2015-05-20,LaPaz,Bolivia,-68.3667,-16.45,[-68.8667 -16.95 -67.8667 -15.95],0.633,-0.325,1.177,0.51,0.387,-0.238,1.002,0.417,140.0,496.0
2015-05-21,LaPaz,Bolivia,-68.3667,-16.45,[-68.8667 -16.95 -67.8667 -15.95],0.63,-0.159,1.151,0.534,0.403,-0.207,0.989,0.441,157.0,474.0
2015-05-22,LaPaz,Bolivia,-68.3667,-16.45,[-68.8667 -16.95 -67.8667 -15.95],0.633,0.022,1.224,0.647,0.403,-0.152,1.015,0.468,148.0,505.0
2015-05-23,LaPaz,Bolivia,-68.3667,-16.45,[-68.8667 -16.95 -67.8667 -15.95],0.633,0.043,1.224,0.638,0.403,-0.167,1.019,0.468,158.0,490.0
2015-05-24,LaPaz,Bolivia,-68.3667,-16.45,[-68.8667 -16.95 -67.8667 -15.95],0.63,0.032,1.19,0.629,0.41,-0.178,1.069,0.492,180.0,502.0
2015-05-25,LaPaz,Bolivia,-68.3667,-16.45,[-68.8667 -16.95 -67.8667 -15.95],0.63,0.043,1.151,0.596,0.42,-0.149,1.081,0.491,171.0,502.0
2015-05-26,LaPaz,Bolivia,-68.3667,-16.45,[-68.8667 -16.95 -67.8667 -15.95],0.63,0.023,1.177,0.585,0.427,-0.116,1.075,0.479,172.0,493.0
2015-05-27,LaPaz,Bolivia,-68.3667,-16.45,[-68.8667 -16.95 -67.8667 -15.95],0.608,-0.049,1.151,0.526,0.443,-0.125,1.101,0.492,178.0,509.0
2015-05-28,LaPaz,Bolivia,-68.3667,-16.45,[-68.8667 -16.95 -67.8667 -15.95],0.569,-0.035,1.118,0.511,0.459,-0.091,1.131,0.502,193.0,479.0
2015-05-29,LaPaz,Bolivia,-68.3667,-16.45,[-68.8667 -16.95 -67.8667 -15.95],0.517,-0.049,1.092,0.479,0.432,-0.11,1.08,0.474,167.0,500.0
2015-05-30,LaPaz,Bolivia,-68.3667,-16.45,[-68.8667 -16.95 -67.8667 -15.95],0.545,0.09,1.003,0.534,0.472,-0.085,1.084,0.506,164.0,487.0
2015-05-31,LaPaz,Bolivia,-68.3667,-16.45,[-68.8667 -16.95 -67.8667 -15.95],0.539,0.09,1.003,0.528,0.484,-0.077,1.072,0.521,187.0,512.0
2015-06-01,LaPaz,Bolivia,-68.3667,-16.45,[-68.8667 -16.95 -67.8667 -15.95],0.539,0.05,1.003,0.517,0.492,-0.073,1.077,0.522,206.0,536.0
2015-06-02,LaPaz,Bolivia,-68.3667,-16.45,[-68.8667 -16.95 -67.8667 -15.95],0.537,0.006,1.051,0.504,0.491,-0.075,1.076,0.51,231.0,537.0
2015-06-03,LaPaz,Bolivia,-68.3667,-16.45,[-68.8667 -16.95 -67.8667 -15.95],0.537,0.05,1.069,0.533,0.499,-0.01,1.081,0.528,246.0,548.0
2015-06-04,LaPaz,Bolivia,-68.3667,-16.45,[-68.8667 -16.95 -67.8667 -15.95],0.545,0.069,1.118,0.612,0.524,0.014,1.071,0.56,261.0,526.0
2015-06-05,LaPaz,Bolivia,-68.3667,-16.45,[-68.8667 -16.95 -67.8667 -15.95],0.545,0.058,1.131,0.607,0.52,-0.008,1.06,0.557,244.0,541.0
2015-06-06,LaPaz,Bolivia,-68.3667,-16.45,[-68.8667 -16.95 -67.8667 -15.95],0.55,0.058,1.069,0.597,0.529,-0.005,1.044,0.555,266.0,519.0
2015-06-07,LaPaz,Bolivia,-68.3667,-16.45,[-68.8667 -16.95 -67.8667 -15.95],0.55,0.024,1.076,0.6,0.519,-0.017,1.035,0.537,256.0,546.0
2015-06-08,LaPaz,Bolivia,-68.3667,-16.45,[-68.8667 -16.95 -67.8667 -15.95],0.549,0.017,1.069,0.594,0.517,-0.028,1.022,0.522,243.0,528.0
2015-06-09,LaPaz,Bolivia,-68.3667,-16.45,[-68.8667 -16.95 -67.8667 -15.95],0.545,0.002,1.069,0.571,0.492,-0.065,1.006,0.503,255.0,540.0
2015-06-10,LaPaz,Bolivia,-68.3667,-16.45,[-68.8667 -16.95 -67.8667 -15.95],0.537,-0.019,1.013,0.558,0.481,-0.087,0.992,0.496,247.0,541.0
2015-06-11,LaPaz,Bolivia,-68.3667,-16.45,[-68.8667 -16.95 -67.8667 -15.95],0.545,-0.019,1.069,0.579,0.469,-0.053,1.001,0.506,246.0,534.0
2015-06-12,LaPaz,Bolivia,-68.3667,-16.45,[-68.8667 -16.95 -67.8667 -15.95],0.55,-0.036,1.1,0.592,0.452,-0.069,1.01,0.524,252.0,551.0
2015-06-13,LaPaz,Bolivia,-68.3667,-16.45,[-68.8667 -16.95 -67.8667 -15.95],0.508,-0.06,1.055,0.565,0.471,-0.058,1.023,0.53,272.0,518.0
2015-06-14,LaPaz,Bolivia,-68.3667,-16.45,[-68.8667 -16.95 -67.8667 -15.95],0.476,-0.104,1.132,0.552,0.45,-0.052,1.016,0.5,241.0,536.0
2015-06-15,LaPaz,Bolivia,-68.3667,-16.45,[-68.8667 -16.95 -67.8667 -15.95],0.378,-0.109,0.929,0.483,0.417,-0.067,0.977,0.486,226.0,522.0
2015-06-16,LaPaz,Bolivia,-68.3667,-16.45,[-68.8667 -16.95 -67.8667 -15.95],0.388,-0.104,0.999,0.512,0.429,-0.074,1.0,0.511,238.0,545.0
2015-06-17,LaPaz,Bolivia,-68.3667,-16.45,[-68.8667 -16.95 -67.8667 -15.95],0.39,-0.07,0.929,0.525,0.44,-0.034,0.975,0.528,226.0,535.0
2015-06-18,LaPaz,Bolivia,-68.3667,-16.45,[-68.8667 -16.95 -67.8667 -15.95],0.388,-0.077,0.875,0.495,0.426,-0.104,0.963,0.495,202.0,500.0
2015-06-19,LaPaz,Bolivia,-68.3667,-16.45,[-68.8667 -16.95 -67.8667 -15.95],0.363,-0.115,0.792,0.419,0.399,-0.15,0.936,0.464,209.0,511.0
2015-06-20,LaPaz,Bolivia,-68.3667,-16.45,[-68.8667 -16.95 -67.8667 -15.95],0.374,-0.109,0.875,0.477,0.388,-0.148,0.954,0.467,228.0,488.0
2015-06-21,LaPaz,Bolivia,-68.3667,-16.45,[-68.8667 -16.95 -67.8667 -15.95],0.286,-0.132,0.929,0.464,0.372,-0.155,0.953,0.459,206.0,504.0
2015-06-22,LaPaz,Bolivia,-68.3667,-16.45,[-68.8667 -16.95 -67.8667 -15.95],0.368,-0.099,0.97,0.488,0.388,-0.138,0.977,0.482,229.0,482.0